Date,TemperatureHighF,TemperatureAvgF,TemperatureLowF,DewpointHighF,DewpointAvgF,DewpointLowF,HumidityHigh,HumidityAvg,HumidityLow,PressureMaxIn,PressureMinIn,WindSpeedMaxMPH,WindSpeedAvgMPH,GustSpeedMaxMPH,PrecipitationSumIn
2013-2-1,77,63,52,57,50,38,78,63,47,30.21,30.09,16,4,16,0.00
2013-2-2,78,64,54,57,50,40,96,63,41,30.19,30.06,13,2,13,0.00
2013-2-3,77,63,53,58,50,36,100,68,25,30.11,30.00,13,2,13,0.00
2013-2-4,78,62,48,57,50,40,97,68,31,30.08,29.96,11,1,11,0.00
2013-2-5,82,67,53,64,59,53,100,80,44,30.02,29.94,9,1,9,0.00
2013-2-6,81,70,60,68,64,60,100,82,59,30.04,29.96,11,1,11,0.00
2013-2-7,86,73,62,68,64,62,100,77,46,30.01,29.88,11,1,11,0.00
2013-2-8,85,75,68,73,70,60,100,86,58,29.97,29.85,14,2,14,0.00
2013-2-9,85,71,62,69,64,60,100,79,53,30.11,29.95,13,3,13,0.00
2013-2-10,78,71,64,69,63,58,93,76,64,30.19,30.08,17,4,17,0.02
2013-2-11,82,72,64,68,65,62,97,79,60,30.16,30.05,14,2,14,0.00
2013-2-12,88,74,62,71,67,61,100,82,45,30.06,29.91,12,1,12,0.00
2013-2-13,89,77,68,75,71,68,100,83,54,29.95,29.83,16,2,16,0.00
2013-2-14,86,72,63,76,70,63,100,92,64,29.95,29.80,22,3,22,0.48
2013-2-15,73,67,63,71,66,63,100,99,90,29.96,29.88,11,1,11,0.47
2013-2-16,75,65,53,67,58,46,100,80,39,30.02,29.82,18,4,18,0.01
2013-2-17,62,52,45,48,32,21,86,50,24,30.25,30.02,23,5,23,0.00
2013-2-18,72,60,46,57,46,34,74,62,42,30.25,30.13,16,4,16,0.00
2013-2-19,81,71,58,69,63,55,100,77,57,30.14,30.02,15,2,15,0.00
2013-2-20,84,72,64,68,66,59,100,84,44,30.05,29.95,11,2,11,0.00
2013-2-21,85,73,64,71,67,64,100,82,55,30.03,29.93,12,1,12,0.00
2013-2-22,85,76,69,73,71,68,100,86,63,30.03,29.95,14,3,18,0.00
2013-2-23,89,78,72,74,72,69,100,82,55,29.99,29.85,11,2,11,0.00
2013-2-24,90,78,72,76,72,62,100,84,42,29.94,29.83,13,1,13,0.12
2013-2-25,89,76,68,78,71,67,100,86,53,29.86,29.74,10,1,10,0.18
2013-2-26,87,79,74,76,72,68,100,81,57,29.83,29.74,18,3,18,0.00
2013-2-27,77,71,65,76,68,63,100,92,66,29.91,29.80,12,2,12,0.15
2013-2-28,71,65,60,66,57,50,100,78,54,29.94,29.85,11,2,11,0.00